Find Starlink 3230

NORAD ID: 50845 Int'l Des: 2022-001 Owner: SPXS Country: US Constellation: starlink operational
LEOCIRCULAR

实时位置

正在加载3D地球...

关于 Starlink 3230

正在加载描述...

即将过境

Passes for default location (London). Set your location on the main map for personalized predictions.

高度历史

Loading altitude history...

两行轨道根数

1 50845U 22001AU 26105.93608834 -.00000507 00000-0 -13736-4 0 9990
2 50845 53.2180 11.9156 0001602 88.6067 271.5109 15.08836518235897
Epoch: Apr 15, 2026 • Age: 10 hours

当前状态

高度 545.3 km
速度 7.60 km/s
星下点 53.37°N, 128.78°E
发射日期 Jan 6, 2022
运行时间 4.2 years
类型 internet

技术详情

分类 Payload
质量 297.00 kg
干质量 275.00 kg
总质量 297.00 kg
长度 0.20 m
直径 2.80 m
跨度 9.00 m
形状 Box + pan
制造商 SPXS
平台类型 Starlink
阶段状态 In Orbit
所有者/国家 SPXS/US

Most Searched